Flag for China Weather past 2 weeks in Tsingtao, Shandong, China

Now
84 °F

Partly sunny.


Feels Like: 94 °F
Forecast: 73 / 79 °F
Wind: 6 mph from South

Location: Qingdao Airport

Current Time: Jul 24, 2014 at 11:54:11 AM

Latest Report: Jul 24, 2014 at 11:00 AM


Visibility: N/A

Pressure: 29.62 "Hg

Humidity: 79%

Dew point: 77 °F

Location of TsingtaoLocation

Historic Weather in Tsingtao — Graph

°F

Tsingtao temperature yesterday

Maximum temperature yesterday: 81 °F (at 12:00 AM)
Minimum temperature yesterday: 75 °F (at 8:00 AM)
Average temperature yesterday: 78 °F

Past Weeks' High & Low Weather Summary

 TemperatureHumidityPressure
High99 °F (Jul 19, 2:00 PM)94% (Jul 22, 6:00 PM)29.86 "Hg (Jul 22, 6:00 PM)
Low70 °F (Jul 13, 5:00 AM)32% (Jul 9, 1:00 PM)29.50 "Hg (Jul 9, 5:00 PM)
Average82 °F68%29.68 "Hg
* Reported Jul 9 10:00 AM — Jul 24 10:00 AM, Tsingtao, Weather by CustomWeather, © 2014

Note: Actual official high and low records may vary slightly from our data, if they occured in-between our weather recording intervals... More about our weather records

Advertising

Tsingtao weather history for previous 24 hours

 ConditionsComfort  
Time TempWeatherWind HumidityBarometerVisibility
10:00 AM
Jul 24
84 °FPartly sunny.6 mph74%29.65 "HgN/A
9:00 AM82 °FScattered clouds.6 mph79%29.65 "Hg4 mi
8:00 AM81 °FClear.6 mph79%29.65 "Hg4 mi
7:00 AM79 °FScattered clouds.3 mph84%29.65 "Hg4 mi
6:00 AM77 °FFog.1 mph89%29.65 "Hg3 mi
5:00 AM77 °FFog.1 mph89%29.62 "Hg3 mi
4:00 AM77 °FPassing clouds.3 mph89%29.62 "Hg5 mi
3:00 AM77 °FPassing clouds.1 mph89%29.62 "Hg4 mi
2:00 AM77 °FPassing clouds.6 mph89%29.62 "Hg4 mi
1:00 AM77 °FPassing clouds.3 mph89%29.65 "Hg4 mi
12:00 AM77 °FFog.3 mph89%29.65 "Hg3 mi
11:00 PM
Jul 23
77 °FFog.3 mph89%29.65 "Hg3 mi
10:00 PM77 °FFog.3 mph89%29.65 "Hg3 mi
9:00 PM79 °FFog.3 mph84%29.65 "Hg3 mi
8:00 PM79 °FFog.3 mph89%29.65 "Hg3 mi
7:00 PM79 °FFog.3 mph89%29.65 "Hg3 mi
6:00 PM81 °FPassing clouds.1 mph84%29.62 "Hg5 mi
5:00 PM79 °FScattered clouds.3 mph84%29.65 "HgN/A
4:00 PM77 °FPassing clouds.8 mph89%29.62 "Hg5 mi
1:00 PM81 °FThunderstorms. Fog.1 mph89%29.65 "Hg2 mi
12:00 PM81 °FFog.3 mph89%29.65 "Hg2 mi
11:00 AM75 °FThunderstorms. Fog.3 mph94%29.65 "Hg1 mi
Weather by CustomWeather, © 2014

See weather overviewHow to use our weather pages